Location: Newark
(49.3000°N, 9.4667°E)
Time: 08:48:47
(UTC+00:00)

Transit 4A - Pass Details

Date: 29 May 2019
Orbit: 862 x 983 km, 66.8° (Epoch: 18 June)

Event Time Altitude Azimuth Distance (km) Brightness Sun altitude
Rises 23:07:42 0° 315° (NW) 3,696 11.8 -19.0°
Reaches altitude 10° 23:11:01 10° 299° (WNW) 2,738 10.7 -19.0°
Maximum altitude 23:15:21 19° 256° (WSW) 2,112 9.6 -19.0°
Enters shadow 23:17:38 16° 229° (SW) 2,289 9.6 -19.0°
